Weather History for Massena, NY

Change the Weather History Date:

Wednesday, October 31, 2012

  Actual Average Record
Temperature  
Mean Temperature 50 °F 41 °F  
Max Temperature 58 °F 50 °F 73 °F (1956)
Min Temperature 41 °F 32 °F 16 °F (1975)
Degree Days  
Heating Degree Days 15 24  
Month to date heating degree days 428 583  
Since 1 July heating degree days 645 881  
Cooling Degree Days 0 0  
Month to date cooling degree days 0 2  
Year to date cooling degree days 537 363  
Growing Degree Days 1 (Base 50)    
Moisture  
Dew Point 46 °F    
Average Humidity 92    
Maximum Humidity 100    
Minimum Humidity 83    
Precipitation  
Precipitation 0.13 in 0.10 in 0.45 in (2013)
Month to date precipitation 3.37 3.31  
Year to date precipitation 25.89 29.50  
Sea Level Pressure  
Sea Level Pressure 29.45 in    
Wind  
Wind Speed 5 mph (SSW)    
Max Wind Speed 9 mph    
Max Gust Speed 18 mph    
Visibility 9 miles    
Events Rain    
T = Trace of Precipitation, MM = Missing Value Source: NWS Daily Summary

Daily Weather History Graph

Daily Weather History Graph

Search for Another Location

Airport:

Trip Planner

Search our weather history database for the weather conditions in past years. The results will help you decide how hot, cold, wet, or windy it might be!

Date:

Astronomy

Oct. 31, 2012 Rise Set
Actual Time 7:36 AM EDT 5:48 PM EDT
Civil Twilight 7:06 AM EDT 6:18 PM EDT
Nautical Twilight 6:31 AM EDT 6:53 PM EDT
Astronomical Twilight 5:57 AM EDT 7:27 PM EDT
Moon 6:52 PM EDT (10/31) 9:20 AM EDT (10/31)
Length of Visible Light 11h 12m
Length of Day
10h 11m
Full, 97% of the Moon is Illuminated
Oct 31
Full
Nov 6
Last Quarter
Nov 13
New
Nov 20
First Quarter
Nov 28
Full

Hourly Weather History & Observations

Time (EDT) Temp. Windchill Dew Point Humidity Pressure Visibility Wind Dir Wind Speed Gust Speed Precip Events Conditions
12:53 AM 57.9 °F - 54.0 °F 87% 29.45 in 10.0 mi ENE 11.5 mph - 0.00 in Rain Light Rain
1:53 AM 55.9 °F - 53.1 °F 90% 29.46 in 10.0 mi East 6.9 mph - 0.00 in   Partly Cloudy
2:53 AM 52.0 °F - 51.1 °F 97% 29.43 in 10.0 mi NNE 4.6 mph - N/A   Clear
3:53 AM 51.1 °F - 50.0 °F 96% 29.44 in 10.0 mi NE 4.6 mph - N/A   Clear
4:53 AM 52.0 °F - 51.1 °F 97% 29.44 in 10.0 mi ENE 5.8 mph - N/A   Mostly Cloudy
5:53 AM 52.0 °F - 50.0 °F 93% 29.42 in 10.0 mi ENE 5.8 mph - N/A   Partly Cloudy
6:53 AM 52.0 °F - 50.0 °F 93% 29.39 in 10.0 mi NE 6.9 mph - N/A   Overcast
7:53 AM 53.1 °F - 51.1 °F 93% 29.40 in 10.0 mi ENE 8.1 mph - N/A   Overcast
8:25 AM 53.6 °F - 50.0 °F 88% 29.42 in 10.0 mi South 9.2 mph 18.4 mph N/A   Overcast
8:40 AM 53.6 °F - 50.0 °F 88% 29.43 in 10.0 mi SW 16.1 mph 19.6 mph 0.00 in Rain Light Rain
8:53 AM 51.1 °F - 48.0 °F 89% 29.44 in 10.0 mi SW 13.8 mph - 0.00 in Rain Light Rain
9:02 AM 50.0 °F - 48.2 °F 94% 29.44 in 4.0 mi SW 11.5 mph - 0.02 in Rain Rain
9:36 AM 48.2 °F - 46.4 °F 93% 29.45 in 6.0 mi SW 11.5 mph 18.4 mph 0.06 in Rain Light Rain
9:43 AM 48.2 °F - 44.6 °F 87% 29.45 in 6.0 mi SW 11.5 mph 18.4 mph 0.06 in Rain Light Rain
9:53 AM 46.9 °F - 45.0 °F 93% 29.46 in 9.0 mi SW 8.1 mph - 0.06 in Rain Light Rain
10:53 AM 48.0 °F - 45.0 °F 89% 29.45 in 10.0 mi SW 5.8 mph - 0.00 in   Overcast
11:53 AM 48.0 °F - 45.0 °F 89% 29.45 in 10.0 mi WSW 6.9 mph - 0.02 in Rain Light Rain
12:53 PM 46.9 °F - 45.0 °F 93% 29.44 in 9.0 mi WSW 6.9 mph - 0.03 in Rain Light Rain
1:13 PM 46.4 °F 42.4 °F 44.6 °F 93% 29.44 in 5.0 mi WSW 8.1 mph - 0.02 in Rain Light Rain
1:53 PM 46.0 °F 42.5 °F 44.1 °F 93% 29.45 in 10.0 mi WSW 6.9 mph - 0.02 in   Overcast
2:07 PM 46.4 °F 42.9 °F 44.6 °F 93% 29.44 in 10.0 mi WSW 6.9 mph - N/A   Overcast
2:29 PM 46.4 °F 42.9 °F 42.8 °F 87% 29.44 in 10.0 mi WSW 6.9 mph - 0.00 in   Overcast
2:53 PM 46.9 °F - 44.1 °F 90% 29.45 in 10.0 mi SW 4.6 mph - 0.00 in   Overcast
3:53 PM 48.0 °F - 44.1 °F 86% 29.45 in 10.0 mi SSW 3.5 mph - N/A   Overcast
4:35 PM 48.2 °F - 44.6 °F 87% 29.44 in 10.0 mi South 5.8 mph - N/A   Overcast
4:53 PM 48.0 °F - 45.0 °F 89% 29.45 in 10.0 mi SSW 4.6 mph - N/A   Overcast
5:08 PM 48.2 °F - 44.6 °F 87% 29.45 in 10.0 mi SW 4.6 mph - N/A   Overcast
5:17 PM 48.2 °F - 44.6 °F 87% 29.45 in 10.0 mi Calm Calm - N/A   Overcast
5:46 PM 46.4 °F - 42.8 °F 87% 29.46 in 10.0 mi Calm Calm - 0.00 in Rain Light Rain
5:53 PM 46.9 °F - 43.0 °F 86% 29.47 in 10.0 mi Calm Calm - 0.00 in Rain Light Rain
6:53 PM 46.9 °F - 45.0 °F 93% 29.48 in 10.0 mi Calm Calm - 0.00 in   Overcast
7:53 PM 46.0 °F 43.9 °F 43.0 °F 89% 29.48 in 10.0 mi South 4.6 mph - N/A   Overcast
8:53 PM 45.0 °F - 41.0 °F 86% 29.48 in 10.0 mi Calm Calm - N/A   Overcast
9:53 PM 45.0 °F 43.5 °F 41.0 °F 86% 29.48 in 10.0 mi South 3.5 mph - N/A   Overcast
10:53 PM 45.0 °F - 39.9 °F 82% 29.49 in 10.0 mi Calm Calm - N/A   Overcast
11:53 PM 44.1 °F - 39.9 °F 85% 29.49 in 10.0 mi Calm Calm - N/A   Overcast